Weather in Koritnoe

Ukraine / Odesa District     47°59′12″N   29°41′31″E
temp.,
°C
wind,
m/s
gust,
m/s
humid.,
%
clouds,
%
prec.,
mm/h
press.,
hPa
HPBL,
m
20 april, tue
tue2000:00+7ene3776100 0.0 1013173
03:00+6ne358397 0.0 101299
06:00+5nne358398 0.0 101195
09:00+9n4766100 0.0 1010451
12:00+11n5653100 0.0 10091751
15:00+12nnw4652100 0.2 10081489
18:00+12nw46555 0.2 1008749
21:00+8wnw336916 0.2 101035
21 april, wed
wed2100:00+7w33775 0.0 101134
03:00+6w3380100 0.0 101129
06:00+5w2285100 0.0 101221
09:00+9w3470100 0.0 1013399
12:00+13w455575 0.3 10131407
15:00+15w5648100 1.6 10131840
18:00+14wsw465380 0.4 10131649
21:00+10wsw347099 0.7 101553
22 april, thu
thu2200:00+9sw33735 0.0 101647
03:00+8ssw34741 0.0 101655
06:00+7ssw33785 0.0 101640
09:00+12sw346422 0.0 1017321
12:00+17ssw454748 0.0 10171686
15:00+18sw553999 0.0 10162536
18:00+16s2355100 0.0 101690
21:00+14s355793 0.0 101775
23 april, fri
fri2300:00+12s5106381 0.0 1016237
03:00+10ssw4117630 0.4 1016251
06:00+8s410840 0.0 1016190
09:00+13ssw69666 0.0 1016429
12:00+17ssw8105133 0.3 10151771
15:00+16w5656100 1.8 10131199
18:00+5nnw81290100 9.9 1018762
21:00+5nnw3684100 13.3 1020614
24 april, sat
sat2400:00+5wsw24885 0.0 1020122
03:00+4w49920 0.0 1020255
06:00+3wnw613855 0.0 1021388
09:00+5nw812550 0.0 10231231
12:00+8nw811405 0.0 10231765
15:00+10nw793810 0.0 10221993
18:00+10wnw474181 0.0 10222083
21:00+6sw345945 0.0 102241